Location: North Evanston
(42.0634°N, 87.6976°W)
Time: 23:09:31
(UTC+00:00)

Transit 2A - Pass Details

Date: 13 May 2026
Orbit: 595 x 949 km, 66.7° (Epoch: 5 June)

Event Time Altitude Azimuth Distance (km) Brightness Sun altitude
Rises 21:29:20 0° 199° (SSW) 3,598 9.8 37.7°
Reaches altitude 10° 21:31:56 10° 196° (SSW) 2,644 9.2 37.2°
Maximum altitude 21:38:04 65° 116° (ESE) 993 6.9 36.1°
Drops below altitude 10° 21:43:51 10° 36° (NE) 2,501 8.4 35.0°
Sets 21:46:15 0° 34° (NNE) 3,391 9.0 34.6°
